Latest Coastal Weather Observations for Rundle Island

IDQ60701

Issued at 10:45 pm EST Wednesday 1 October 2014 (issued every 10 minutes, with the page automatically refreshed every 10 minutes)

About coastal observations | Map of coastal stations | Coastal observations for QLD | Marine services | Other Formats
Station Details ID: 039322 Name: RUNDLE ISLAND Lat: -23.53 Lon: 151.28 Height: 19.8 m
Data from the previous 72 hours. | See also: Recent months at Rundle Island
Date/Time
EST
Temp

°C
Wind Pressure Rain
since 9am
mm
Weather Cloud Vis
km
Sea
Height
m
Swell
Dir
 
Speed
knots
Gust
knots
hPa Trend Height
m
Period
s
Dir
01/10:30pm 21.7 NNW 14 16 1015.4 - - - - - - - - -
01/10:00pm 21.7 NNW 12 14 1015.7 - - - - - - - - -
01/09:30pm 21.7 N 12 14 1015.8 - - - - - - - - -
01/09:00pm 21.7 N 13 14 1015.8 - - - - - - - - -
01/08:30pm 21.7 N 12 14 1015.8 - - - - - - - - -
01/08:00pm 21.8 N 11 12 1015.9 - - - - - - - - -
01/07:30pm 21.9 N 12 13 1015.8 - - - - - - - - -
01/07:00pm 21.8 N 12 14 1015.5 - - - - - - - - -
01/06:30pm 21.7 N 13 15 1015.2 - - - - - - - - -
01/06:00pm 21.8 N 14 15 1015.0 - - - - - - - - -
01/05:30pm 21.9 N 13 15 1014.9 - - - - - - - - -
01/05:00pm 22.1 N 14 15 1015.0 - - - - - - - - -
01/04:30pm 22.1 N 15 16 1014.6 - - - - - - - - -
01/04:00pm 22.0 N 14 16 1014.9 - - - - - - - - -
01/03:30pm 22.0 N 14 15 1015.1 - - - - - - - - -
01/03:00pm 21.9 N 13 14 1015.4 - - - - - - - - -
01/02:30pm 21.8 N 12 14 1015.7 - - - - - - - - -
01/02:00pm 21.6 N 12 13 1016.1 - - - - - - - - -
01/01:30pm 21.8 NNW 12 14 1016.4 - - - - - - - - -
01/01:00pm 21.9 NNW 12 13 1016.8 - - - - - - - - -
01/12:30pm 21.6 NNW 12 14 1017.2 - - - - - - - - -
01/12:00pm 21.6 NNW 10 12 1018.0 - - - - - - - - -
01/11:30am 21.7 N 9 11 1018.5 - - - - - - - - -
01/11:00am 21.5 N 8 11 1018.9 - - - - - - - - -
01/10:30am 21.8 NNW 6 8 1019.4 - - - - - - - - -
01/10:00am 21.9 NW 6 7 1019.4 - - - - - - - - -
01/09:30am 21.6 NNW 6 8 1019.6 - - - - - - - - -
01/09:00am 21.5 NNW 7 9 1019.7 - - - - - - - - -
01/08:30am 21.3 NNW 7 9 1019.6 - - - - - - - - -
01/08:00am 21.0 NNW 7 9 1019.6 - - - - - - - - -
01/07:30am 20.9 NNW 7 8 1019.5 - - - - - - - - -
01/07:00am 20.7 NNW 6 7 1019.5 - - - - - - - - -
01/06:30am 20.7 NNW 7 8 1019.2 - - - - - - - - -
01/06:00am 20.7 N 7 9 1018.9 - - - - - - - - -
01/05:30am 20.6 NNW 7 8 1018.7 - - - - - - - - -
01/05:00am 20.7 N 6 7 1018.7 - - - - - - - - -
01/04:30am 20.7 N 7 9 1018.5 - - - - - - - - -
01/04:00am 20.8 N 7 9 1018.4 - - - - - - - - -
01/03:30am 20.8 N 7 8 1018.4 - - - - - - - - -
01/03:00am 20.8 N 8 9 1018.4 - - - - - - - - -
01/02:30am 20.9 N 8 10 1018.5 - - - - - - - - -
01/02:00am 20.8 N 9 11 1018.6 - - - - - - - - -
01/01:30am 20.8 N 10 12 1018.8 - - - - - - - - -
01/01:00am 21.0 N 10 12 1018.9 - - - - - - - - -
01/12:30am 21.0 NNE 10 11 1019.2 - - - - - - - - -
01/12:00am 21.1 NNE 9 12 1019.6 - - - - - - - - -
 
Date/Time
EST
Temp

°C
Wind Pressure Rain
since 9am
mm
Weather Cloud Vis
km
Sea
Height
m
Swell
Dir
 
Speed
knots
Gust
knots
hPa Trend Height
m
Period
s
Dir
30/11:30pm 21.1 N 9 11 1019.6 - - - - - - - - -
30/11:00pm 21.2 NNE 8 11 1019.8 - - - - - - - - -
30/10:30pm 21.2 NNE 9 10 1019.8 - - - - - - - - -
30/10:00pm 21.2 NNE 9 11 1019.8 - - - - - - - - -
30/09:30pm 21.4 NNE 10 12 1019.9 - - - - - - - - -
30/09:00pm 21.4 NNE 10 12 1019.9 - - - - - - - - -
30/08:30pm 21.5 NE 10 13 1019.8 - - - - - - - - -
30/08:00pm 21.5 NE 11 13 1019.4 - - - - - - - - -
30/07:30pm 21.6 NE 10 13 1019.1 - - - - - - - - -
30/07:00pm 21.4 ENE 9 11 1018.8 - - - - - - - - -
30/06:30pm 21.4 NE 8 9 1018.4 - - - - - - - - -
30/06:00pm 21.5 ENE 7 9 1018.2 - - - - - - - - -
30/05:30pm 21.9 ENE 7 8 1017.9 - - - - - - - - -
30/05:00pm 22.3 E 5 7 1017.8 - - - - - - - - -
30/04:30pm 22.6 E 6 8 1017.8 - - - - - - - - -
30/04:00pm 22.5 E 5 6 1017.8 - - - - - - - - -
30/03:30pm 23.0 E 3 4 1017.8 - - - - - - - - -
30/03:00pm 23.1 E 4 7 1017.9 - - - - - - - - -
30/02:30pm 24.6 CALM 0 3 1018.1 - - - - - - - - -
30/02:00pm 24.2 ENE 1 3 1018.4 - - - - - - - - -
30/01:30pm 24.7 CALM 0 0 1019.0 - - - - - - - - -
30/01:00pm 24.6 N 1 3 1019.2 - - - - - - - - -
30/12:30pm 23.9 N 1 3 1019.6 - - - - - - - - -
30/12:00pm 22.8 NNE 2 4 1020.1 - - - - - - - - -
30/11:30am 24.9 NE 2 3 1020.6 - - - - - - - - -
30/11:00am 22.4 NNE 2 4 1021.1 - - - - - - - - -
30/10:30am 25.3 NE 1 3 1021.4 - - - - - - - - -
30/10:00am 23.8 NNE 2 4 1021.7 - - - - - - - - -
30/09:30am 23.6 NNE 3 4 1021.6 - - - - - - - - -
30/09:00am 22.6 NE 4 6 1021.5 - - - - - - - - -
30/08:30am 22.5 NE 5 7 1021.3 - - - - - - - - -
30/08:00am 22.6 ENE 5 7 1021.0 - - - - - - - - -
30/07:30am 22.0 ENE 6 8 1020.8 - - - - - - - - -
30/07:00am 21.5 ENE 6 7 1020.5 - - - - - - - - -
30/06:30am 21.4 ENE 6 7 1020.3 - - - - - - - - -
30/06:00am 20.9 ENE 5 6 1020.0 - - - - - - - - -
30/05:30am 20.7 ENE 6 8 1019.7 - - - - - - - - -
30/05:00am 20.7 ENE 7 8 1019.5 - - - - - - - - -
30/04:30am 20.7 ENE 5 6 1019.3 - - - - - - - - -
30/04:00am 20.6 ENE 4 5 1019.1 - - - - - - - - -
30/03:30am 20.8 ENE 6 7 1018.8 - - - - - - - - -
30/03:00am 20.6 E 5 7 1018.8 - - - - - - - - -
30/02:30am 20.7 ENE 6 7 1018.9 - - - - - - - - -
30/02:00am 20.8 ENE 5 7 1019.0 - - - - - - - - -
30/01:30am 20.9 NE 6 7 1019.2 - - - - - - - - -
30/01:00am 20.9 NE 6 8 1019.3 - - - - - - - - -
30/12:30am 20.9 NE 6 8 1019.6 - - - - - - - - -
30/12:00am 21.0 ENE 6 8 1019.8 - - - - - - - - -
 
Date/Time
EST
Temp

°C
Wind Pressure Rain
since 9am
mm
Weather Cloud Vis
km
Sea
Height
m
Swell
Dir
 
Speed
knots
Gust
knots
hPa Trend Height
m
Period
s
Dir
29/11:30pm 21.0 ENE 6 8 1020.0 - - - - - - - - -
29/11:00pm 21.0 ENE 6 7 1020.1 - - - - - - - - -
29/10:30pm 21.1 ENE 6 7 1020.1 - - - - - - - - -
29/10:00pm 21.0 E 5 6 1020.4 - - - - - - - - -
29/09:30pm 21.1 E 7 7 1020.3 - - - - - - - - -
29/09:00pm 21.2 ENE 8 9 1020.1 - - - - - - - - -
29/08:30pm 21.2 E 7 9 1020.0 - - - - - - - - -
29/08:00pm 21.3 E 9 10 1019.7 - - - - - - - - -
29/07:30pm 21.2 E 8 9 1019.4 - - - - - - - - -
29/07:00pm 21.2 E 8 10 1019.2 - - - - - - - - -
29/06:30pm 21.2 E 8 10 1018.9 - - - - - - - - -
29/06:00pm 21.2 E 10 12 1018.5 - - - - - - - - -
29/05:30pm 21.4 E 11 13 1017.9 - - - - - - - - -
29/05:00pm 21.6 E 11 13 1017.8 - - - - - - - - -
29/04:30pm 21.7 E 10 12 1017.6 - - - - - - - - -
29/04:00pm 21.9 E 10 11 1017.6 - - - - - - - - -
29/03:30pm 21.8 E 9 11 1017.6 - - - - - - - - -
29/03:00pm 22.0 E 8 9 1017.8 - - - - - - - - -
29/02:30pm 22.1 E 8 10 1017.9 - - - - - - - - -
29/02:00pm 22.1 E 9 10 1018.1 - - - - - - - - -
29/01:30pm 22.3 E 9 11 1018.5 - - - - - - - - -
29/01:00pm 22.3 E 9 10 1018.9 - - - - - - - - -
29/12:30pm 22.2 E 8 11 1019.4 - - - - - - - - -
29/12:00pm 21.4 SE 9 10 1019.8 - - - - - - - - -
29/11:30am 21.5 SE 9 11 1020.1 - - - - - - - - -
29/11:00am 21.3 SSE 10 11 1020.4 - - - - - - - - -
29/10:30am 21.5 SSE 9 11 1020.7 - - - - - - - - -
29/10:00am 21.2 SSE 9 11 1020.9 - - - - - - - - -
29/09:30am 21.0 SSE 9 10 1020.8 - - - - - - - - -
29/09:00am 20.9 SSE 11 12 1020.8 - - - - - - - - -
29/08:30am 20.8 SSE 11 13 1020.6 - - - - - - - - -
29/08:00am 21.0 SE 10 12 1020.3 - - - - - - - - -
29/07:30am 21.7 ESE 11 13 1020.2 - - - - - - - - -
29/07:00am 21.6 ESE 11 13 1019.9 - - - - - - - - -
29/06:30am 21.5 ESE 11 12 1019.6 - - - - - - - - -
29/06:00am 21.1 ESE 10 11 1019.3 - - - - - - - - -
29/05:30am 21.1 ESE 11 13 1019.1 - - - - - - - - -
29/05:00am 21.0 ESE 9 13 1018.7 - - - - - - - - -
29/04:30am 20.9 ESE 10 11 1018.5 - - - - - - - - -
29/04:00am 21.1 ESE 12 13 1018.3 - - - - - - - - -
29/03:30am 21.0 ESE 11 12 1018.2 - - - - - - - - -
29/03:00am 21.2 E 12 13 1018.2 - - - - - - - - -
29/02:30am 21.0 ESE 8 10 1018.5 - - - - - - - - -
29/02:00am 20.9 ESE 7 9 1018.8 - - - - - - - - -
29/01:30am 20.9 ESE 8 10 1019.1 - - - - - - - - -
29/01:00am 20.9 E 9 11 1019.4 - - - - - - - - -
29/12:30am 20.9 E 11 12 1019.6 - - - - - - - - -
29/12:00am 20.8 E 11 12 1019.9 - - - - - - - - -
 
Date/Time
EST
Temp

°C
Wind Pressure Rain
since 9am
mm
Weather Cloud Vis
km
Sea
Height
m
Swell
Dir
 
Speed
knots
Gust
knots
hPa Trend Height
m
Period
s
Dir
28/11:30pm 20.8 E 11 12 1020.1 - - - - - - - - -
28/11:00pm 20.8 E 13 15 1020.2 - - - - - - - - -

Other Formats:

Comma delimited format used in spreadsheet applications
http://www.bom.gov.au/fwo/IDQ60701/IDQ60701.94378.axf

JavaScript Object Notation format (JSON) in row-major order
http://www.bom.gov.au/fwo/IDQ60701/IDQ60701.94378.json